Flag for Germany Weather past 2 weeks in Dorsten, North Rhine-Westphalia, Germany

Now
46 °F

Overcast.


Feels Like: 44 °F
Forecast: 35 / 54 °F
Wind: 5 mph from West

Location: Essen

Current Time: Mar 27, 2015 at 5:30:16 PM

Latest Report: Mar 27, 2015 at 5:00 PM


Visibility: 22 mi

Pressure: 30.12 "Hg

Humidity: 65%

Dew point: 35 °F

Location of DorstenLocation

Historic Weather in Dorsten — Graph

°F

Dorsten temperature yesterday

Maximum temperature yesterday: 46 °F (at 3:00 PM)
Minimum temperature yesterday: 38 °F (at 7:00 PM)
Average temperature yesterday: 41 °F

Past Weeks' High & Low Weather Summary

 TemperatureHumidityPressure
High62 °F (Mar 17, 3:00 PM)100% (Mar 19, 12:00 AM)30.39 "Hg (Mar 19, 12:00 AM)
Low32 °F (Mar 13, 7:00 AM)39% (Mar 17, 3:00 PM)29.65 "Hg (Mar 25, 3:00 AM)
Average43 °F80%30.14 "Hg
* Reported Mar 12 4:00 PM — Mar 27 4:00 PM, Dorsten, Weather by CustomWeather, © 2015

Note: Actual official high and low records may vary slightly from our data, if they occured in-between our weather recording intervals... More about our weather records

Advertising

Dorsten weather history for previous 24 hours

 ConditionsComfort  
Time TempWeatherWind HumidityBarometerVisibility
4:00 PM
Fri, Mar 27
47 °FOvercast.6 mph63%30.09 "Hg25 mi
3:00 PM47 °FOvercast.7 mph65%30.07 "Hg22 mi
2:00 PM47 °FOvercast.7 mph62%30.05 "Hg19 mi
1:00 PM46 °FOvercast.7 mph68%30.04 "Hg19 mi
12:00 PM44 °FOvercast.6 mph79%30.02 "Hg14 mi
11:00 AM43 °FLight rain. Low clouds.7 mph80%30.01 "Hg10 mi
10:00 AM42 °FOvercast.6 mph82%29.98 "Hg12 mi
9:00 AM42 °FOvercast.6 mph83%29.96 "Hg14 mi
8:00 AM41 °FOvercast.7 mph86%29.94 "Hg14 mi
7:00 AM41 °FOvercast.6 mph88%29.91 "Hg12 mi
6:00 AM41 °FLight rain. Overcast.6 mph88%29.89 "Hg10 mi
5:00 AM41 °FOvercast.5 mph87%29.87 "Hg11 mi
4:00 AM41 °FOvercast.5 mph88%29.85 "Hg9 mi
3:00 AM42 °FOvercast.5 mph91%29.83 "Hg6 mi
2:00 AM41 °FFog.3 mph97%29.82 "Hg2 mi
1:00 AM42 °FFog.3 mph100%29.80 "Hg2 mi
12:00 AM42 °FFog.5 mph99%29.78 "Hg2 mi
11:00 PM
Thu, Mar 26
41 °FLow clouds.N/A100%29.77 "Hg2 mi
10:00 PM40 °FDrizzle. Low clouds.5 mph99%29.76 "Hg2 mi
9:00 PM39 °FLight rain. Low clouds.6 mph99%29.74 "Hg2 mi
8:00 PM38 °FDrizzle. Low clouds.6 mph97%29.74 "Hg5 mi
7:00 PM38 °FLight rain. Low clouds.7 mph93%29.74 "Hg6 mi
6:00 PM40 °FDrizzle. Low clouds.6 mph80%29.74 "Hg11 mi
5:00 PM41 °FDrizzle. Low clouds.6 mph77%29.75 "Hg14 mi
Weather by CustomWeather, © 2015

See weather overviewHow to use our weather pages